Location: Newark
(34.6283°N, 36.0776°E)
Time: 03:52:20
(UTC+00:00)

A-11 Canister half - Pass Details

Date: 17 September 2019
Orbit: 1527 x 1682 km, 47.3° (Epoch: 15 October)

Event Time Altitude Azimuth Distance (km) Brightness Sun altitude
Exits shadow 03:23:50 -1° 257° (WSW) 4,768 10.9 0.0°
Rises 03:24:03 0° 257° (WSW) 4,698 10.9 0.0°
Reaches altitude 10° 03:27:12 10° 262° (W) 3,731 10.4 0.7°
Maximum altitude 03:36:23 52° 338° (NNW) 1,898 9.5 2.6°
Drops below altitude 10° 03:45:53 10° 53° (NE) 3,853 12.1 4.5°
Sets 03:49:13 0° 59° (ENE) 4,862 12.7 5.2°
